Simultaneous Nadir Overpasses (SNOs) Predictions

Prediction of SNOs between GOES-14 and NOAA-20 Satellite Orbit:

Table of predicted SNOs for the next 14.0 days since TLE Epoch: 7/23/2022
Index Date Time (GOES-14) GOES-14 Lat,Lon NOAA-20 Lat,Lon Distance(km) Time Diff (sec)
1 07/23/2022 08:20:29 -0.31,-104.46 -0.50,-103.58 99.94 80
2 07/24/2022 20:39:45 0.34,-104.74 -0.61,-108.90 474.39 80
3 07/25/2022 20:23:39 0.33,-104.74 0.40,-104.36 42.46 80
4 07/28/2022 08:26:40 -0.36,-104.44 -0.22,-105.09 73.83 80
5 07/29/2022 08:07:55 -0.34,-104.44 -1.23,-100.56 442.30 80
6 07/30/2022 20:27:11 0.37,-104.71 0.13,-105.88 132.41 80
7 07/31/2022 20:11:05 0.36,-104.71 1.09,-101.33 384.73 80
8 08/02/2022 08:32:51 -0.39,-104.44 0.11,-106.59 246.31 80
9 08/03/2022 08:11:25 -0.37,-104.43 -0.91,-102.06 269.85 80
10 08/04/2022 20:33:22 0.40,-104.69 -0.19,-107.38 306.57 80
11 08/05/2022 20:17:16 0.39,-104.69 0.83,-102.85 210.39 80
